Regional Weather Roundup
Issued by NWS

Home | Current Version | Previous Version | Text Only | Print | Product List | Glossary On
Versions: 1 2 3 4 5 6 7 8 9 10 11 12 13 14 15 16 17 18 19 20 21 22 23 24 25 26 27 28 29 30 31 32 33 34 35 36 37 38 39 40 41 42 43 44 45 46 47 48 49 50
000
ASUS44 KLIX 051511
RWRLA
LOUISIANA WEATHER ROUNDUP
NATIONAL WEATHER SERVICE NEW ORLEANS LA
1000 AM CDT THU MAY 05 2016

NOTE: "FAIR" INDICATES FEW OR NO CLOUDS BELOW 12,000 FEET WITH NO
      SIGNIFICANT WEATHER AND/OR OBSTRUCTIONS TO VISIBILITY.
      SKY/WX - SKY CONDITION AND SIGNIFICANT WEATHER.
      TMP - AIR TEMPERATURE.    DP   - DEWPOINT TEMPERATURE.
      RH  - RELATIVE HUMIDITY.  PRES - PRESSURE.
      HX  - HEAT INDEX.         WCI  - WIND CHILL INDEX.

*  THESE STATIONS ARE NOT NWS OR FAA STATIONS AND ARE NOT UNDER
   NWS QUALITY CONTROL.

LAZ040-048-061>063-065-066-069-051600-
SOUTHEAST LOUISIANA

CITY           SKY/WX    TMP DP  RH WIND       PRES   REMARKS
N.O. AUDUBON     N/A     73  59  60 MISG        N/A
N.O. INTL ARPT SUNNY     74  57  55 N12       29.95S
N.O. LAKEFRONT SUNNY     70  57  63 N10       29.96R
N.O. DOWNTOWN* FAIR      73  55  53 N7        29.96R
RESERVE*       FAIR      75  53  45 N7        29.96S
SLIDELL        SUNNY     72  57  59 N9        29.95R
BATON ROUGE    SUNNY     72  52  49 VRB6      29.98R
BOOTHVILLE     SUNNY     72  62  71 N13       29.94R
BELLE CHASSE   SUNNY     74  54  49 NE10      29.94R
BOGALUSA*      FAIR      71  54  55 N8        29.98R
GALLIANO*      SUNNY     74  60  60 N10       29.95R
NEW ROADS*     FAIR      71  53  53 N7        29.99S
GONZALES*      FAIR      72  54  52 N7        29.96S
HAMMOND*       SUNNY     72  52  49 N9        29.97R
HOUMA*         SUNNY     73  57  56 N8        29.96
PORT FOURCHON* SUNNY     73  59  60 NW10      29.95S

$$

LAZ041-044-053-054-051600-
SOUTHWEST LOUISIANA

CITY           SKY/WX    TMP DP  RH WIND       PRES   REMARKS
LAKE CHARLES   SUNNY     74  49  41 NE8       30.01R
LAFAYETTE        N/A     73  53  49 MISG      29.99R
PATTERSON      NOT AVBL
SALT POINT       N/A     74  57  55 NE5       29.96R
NEW IBERIA     SUNNY     73  54  51 NE10      29.99R
CHENAULT AIRPK NOT AVBL

$$

LAZ027-028-051600-
CENTRAL LOUISIANA

CITY           SKY/WX    TMP DP  RH WIND       PRES   REMARKS
FORT POLK      SUNNY     70  47  44 N8        30.02R
ALEXANDRIA INT SUNNY     70  51  51 N7        30.00S
ALEXANDRIA     SUNNY     72  51  47 VRB7      30.01S

$$

LAZ001-002-051600-
NORTHWEST LOUISIANA

CITY           SKY/WX    TMP DP  RH WIND       PRES   REMARKS
SHREVEPORT     SUNNY     71  48  43 N8        30.05R
BARKSDALE AFB  SUNNY     70  49  47 NE6       30.05S
DTN SHREVEPORT SUNNY     70  49  47 N7        30.05S

$$

LAZ014-016-051600-
NORTHEAST LOUISIANA

CITY           SKY/WX    TMP DP  RH WIND       PRES   REMARKS
MONROE         SUNNY     70  49  47 N3        30.03S
TALLULAH       SUNNY     70  49  47 VRB3      30.01S

$$




USA.gov is the U.S. government's official web portal to all federal, state and local government web resources and services.